Regional Weather Roundup
Issued by NWS

Home | Current Version | Previous Version | Text Only | Print | Product List | Glossary Off
Versions: 1 2 3 4 5 6 7 8 9 10 11 12 13 14 15 16 17 18 19 20 21 22 23 24 25 26 27 28 29 30 31 32 33 34 35 36 37 38 39 40 41 42 43 44 45 46 47 48 49 50

000
ASUS44 KMEG 310710
RWRTN
TENNESSEE HOURLY STATE WEATHER ROUNDUP
NATIONAL WEATHER SERVICE MEMPHIS TN
200 AM CDT THU JUL 31 2014

TNZ002-004-019-021-049-052-054-088>092-310800-
WEST TENNESSEE

CITY           SKY/WX    TMP DP  RH WIND       PRES   REMARKS
MEMPHIS INTL   CLOUDY    72  64  76 N3        30.07F
NWS MEMPHIS      N/A     69 N/A N/A MISG        N/A
JACKSON        CLOUDY    69  65  86 CALM      30.07S
DYERSBURG      CLOUDY    70  59  68 CALM      30.08F
UNION CITY     CLOUDY    66  64  94 CALM      30.07S
PARIS          MOCLDY    59  57  92 CALM      30.09F
LEXINGTON      MOCLDY    64  63  94 CALM      30.07F
SAVANNAH       CLOUDY    66  66 100 CALM      30.08F
$$

TNZ008-025-027-028-033-062-065-066-310800-
NORTH MIDDLE TENNESSEE

CITY           SKY/WX    TMP DP  RH WIND       PRES   REMARKS
NASHVILLE      MOCLDY    64  60  87 CALM      30.10R
DICKSON        MOCLDY    61  55  82 CALM      30.10S
PORTLAND       PTCLDY    61  57  88 CALM      30.10S
CLARKSVILLE    MOCLDY    60  57  89 CALM      30.09S
LEBANON        MOCLDY    61  57  86 CALM      30.08S
SMYRNA         MOCLDY    61  60  96 CALM      30.11R
MURFREESBORO   MOCLDY    66  63  90 CALM      30.09S
COOKEVILLE     CLEAR     59  59 100 CALM      30.10S
GALLATIN       MOCLDY    62  59  90 NW3       30.11S
CROSSVILLE     CLOUDY    64  57  78 CALM      30.14S
$$

TNZ061-075-076-078-094-096-097-310800-
SOUTH MIDDLE TENNESSEE

CITY           SKY/WX    TMP DP  RH WIND       PRES   REMARKS
LEWISBURG      MOCLDY    62  60  93 CALM      30.09S
FAYETTEVILLE   CLEAR     64  61  88 N9G21     30.09S
TULLAHOMA      CLEAR     63  57  82 CALM      30.11S
WINCHESTER     CLEAR     61  57  88 CALM      30.10S
MCMINNVILLE    CLEAR     61  61 100 CALM      30.10S
COLUMBIA       CLEAR     64  63  94 CALM      30.08F
SHELBYVILLE    CLEAR     63  63 100 CALM      30.11R
$$

TNZ017-018-042-046-047-310800-
NORTHEAST TENNESSEE

CITY           SKY/WX    TMP DP  RH WIND       PRES   REMARKS
TRI CITIES     MOCLDY    57  55  93 CALM      30.14R FOG
ELIZABETHTON   SUNNY     55  54  94 NE3         N/A
$$

TNZ012-013-036-069-073-074-310800-
CENTRAL EAST TENNESSEE

CITY           SKY/WX    TMP DP  RH WIND       PRES   REMARKS
KNOXVILLE      CLOUDY    61  59  93 CALM      30.09S
OAK RIDGE      CLOUDY    63  60  90 CALM      30.11F
GATLINBURG     SUNNY     57  57 100 CALM      30.10F
MORRISTOWN     SUNNY     59  57  94 CALM      30.12S
$$

TNZ083-085-099-310800-
SOUTHEAST TENNESSEE

CITY           SKY/WX    TMP DP  RH WIND       PRES   REMARKS
CHATTANOOGA    PTCLDY    65  59  81 CALM      30.08F
$$

SKY/WX REPORTED AS FAIR MEANS FEW OR NO CLOUDS BELOW
12 THOUSAND FEET.



USA.gov is the U.S. government's official web portal to all federal, state and local government web resources and services.